Content
SEND FEEDBACK

Daily
Averages
Monthly
Summary
United States of America

AMES, OKLAHOMA


Home > North America > United States > Oklahoma
Elevation: 1210 feet     Latitude: 36 15N     Longitude: 098 11W

WEATHER
 
SELECT A DAY
Number of Records: 172,234;   Date Range: 1/3/95 - 8/12/14
 
SHARE

PRINT THIS DATA

[ ← Previous Day ]
WEATHER ALMANAC - JANUARY 31, 2013
[ Next Day → ]
[ °C ]   °F
Weather ElementAverageHighLow
Temperature32.2 °F50 °F (10:55 am)20.3 °F (11:55 pm)
Dewpoint19.3 °F26.6 °F (12:55 pm)8.1 °F (10:55 pm)
Humidity61.2 %86 % (6:55 am)30 % (10:55 am)
Barometer30.21 in30.47 in (8:55 pm)30.01 in (3:55 am)
Wind Speed11.6 mph20.7 mph (2:55 pm)
Wind Gust31.1 mph (2:55 pm)
Weather ElementAverage
Visibility10 mi
Wind DirectionSE (131.3 °)

Weather ElementTotal
Precipitation---
Heating Degree Days29.9 (Base 65)
Averaged from 23 records on January 31, 2013
WEATHER CONDITIONS BREAKOUT
WIND DIRECTION BREAKOUT
WEATHER BY HOUR - JANUARY 31, 2013
[ °C ]   °F
Local TimeTemperatureDewpointHumidityBarometerVisibilityWind DirectionWind SpeedGust SpeedPrecipitationEventsConditions
1:55 AM25.3 °F20.1 °F81 %30.04 in10.0 miSW (220°)8.1 mphClear
2:55 AM26.4 °F20.1 °F77 %30.03 in10.0 miWest (260°)8.1 mphClear
3:55 AM25.5 °F19.6 °F78 %30.01 in10.0 miSSW (210°)11.5 mphClear
4:55 AM26.6 °F21.2 °F80 %30.01 in10.0 miWSW (240°)8.1 mphClear
5:55 AM24.8 °F19.4 °F80 %30.02 in10.0 miWSW (250°)8.1 mphPartly Cloudy
6:55 AM23.0 °F19.4 °F86 %30.05 in10.0 miWest (280°)4.6 mphPartly Cloudy
7:55 AM26.6 °F21.2 °F80 %30.06 in10.0 miWSW (240°)8.1 mphPartly Cloudy
8:55 AM35.6 °F23.0 °F60 %30.09 in10.0 miVariable3.5 mphScattered Clouds
9:55 AM42.8 °F23.0 °F46 %30.11 in10.0 miNorth (350°)10.4 mphScattered Clouds
10:55 AM50.0 °F19.4 °F30 %30.11 in10.0 miNorth (350°)12.7 mphScattered Clouds
11:55 AM50.0 °F24.8 °F37 %30.14 in10.0 miNorth (360°)18.4 mphPartly Cloudy
12:55 PM48.2 °F26.6 °F43 %30.17 in10.0 miNorth (10°)16.1 mph24.2 mphPartly Cloudy
1:55 PM48.2 °F26.6 °F43 %30.18 in10.0 miNNE (20°)19.6 mph27.6 mphPartly Cloudy
2:55 PM42.8 °F26.6 °F53 %30.21 in10.0 miNNE (30°)20.7 mph31.1 mphClear
3:55 PM39.2 °F24.8 °F56 %30.25 in10.0 miNorth (10°)19.6 mph25.3 mphPartly Cloudy
4:55 PM35.6 °F21.2 °F56 %30.32 in10.0 miNNE (20°)15.0 mph25.3 mphPartly Cloudy
5:55 PM30.2 °F17.6 °F60 %30.36 in10.0 miNorth (10°)17.3 mph25.3 mphPartly Cloudy
6:56 PM26.6 °F15.8 °F64 %30.43 in10.0 miNNE (20°)12.7 mphPartly Cloudy
7:57 PM24.8 °F14.0 °F64 %30.45 in10.0 miNNE (20°)11.5 mphPartly Cloudy
8:55 PM24.3 °F12.0 °F60 %30.47 in10.0 miNNE (20°)10.4 mphClear
9:55 PM23.2 °F8.8 °F54 %30.45 in10.0 miNNE (30°)8.1 mphClear
10:55 PM21.7 °F8.1 °F56 %30.44 in10.0 miNNE (30°)5.8 mphClear
11:55 PM20.3 °F9.7 °F64 %30.42 in10.0 miNE (40°)9.2 mphClear
Hourly data recorded from KEND, located miles away from Ames, Oklahoma







STORIES FROM OUR PARTNERS